Wahoo, NE

5:34 AM CDT on May 26, 2018 (GMT -0500)
Wahoo Municipal

Weather History for KAHQ - June, 2013

Change the Weather History Date:

Saturday, June 22, 2013

  Actual Average Record
Temperature  
Mean Temperature 79 °F -  
Max Temperature 90 °F 85 °F 105 °F (1988)
Min Temperature 68 °F 60 °F 47 °F (1972)
Cooling Degree Days 14    
Growing Degree Days 29 (Base 50)    
Moisture  
Dew Point 66 °F    
Average Humidity 63    
Maximum Humidity 89    
Minimum Humidity 39    
Precipitation  
Precipitation 0.27 in - - ()
Sea Level Pressure  
Sea Level Pressure 29.86 in    
Wind  
Wind Speed 15 mph (SE)    
Max Wind Speed 32 mph    
Max Gust Speed 39 mph    
Visibility 10 miles    
Events Rain    
Averages and records for this station are not official NWS values.
T = Trace of Precipitation, MM = Missing Value Source: NWS Daily Summary

Daily Weather History Graph

Daily Weather History Graph

Search for Another Location

Airport or City:

Astronomy

Jun. 22, 2013 Rise Set
Actual Time 5:53 AM CDT 9:03 PM CDT
Civil Twilight 5:19 AM CDT 9:36 PM CDT
Nautical Twilight 4:36 AM CDT 10:20 PM CDT
Astronomical Twilight 3:44 AM CDT 11:11 PM CDT
Moon 8:18 PM CDT (6/22) 5:08 AM CDT (6/22)
Length of Visible Light 16h 16m
Length of Day
15h 09m
Waxing Gibbous, 99% of the Moon is Illuminated
Jun 22
Waxing Gibbous
Jun 23
Full
Jun 29
Last Quarter
Jul 8
New
Jul 15
First Quarter

Hourly Weather History & Observations

Time (CDT) Temp. Heat Index Dew Point Humidity Pressure Visibility Wind Dir Wind Speed Gust Speed Precip Events Conditions
12:15 AM 83.5 °F 87.2 °F 69.4 °F 62% 29.84 in 10.0 mi South 15.0 mph 19.6 mph N/A   Clear
12:35 AM 83.7 °F 87.5 °F 69.3 °F 62% 29.84 in 10.0 mi South 13.8 mph - N/A   Clear
12:55 AM 83.5 °F 87.2 °F 69.4 °F 62% 29.84 in 10.0 mi South 15.0 mph 19.6 mph N/A   Clear
1:15 AM 83.5 °F 87.2 °F 69.3 °F 62% 29.84 in 10.0 mi SSW 15.0 mph 23.0 mph N/A   Clear
1:35 AM 83.8 °F 87.5 °F 69.3 °F 61% 29.85 in 10.0 mi SSW 15.0 mph 21.9 mph N/A   Clear
1:55 AM 83.7 °F 87.5 °F 69.3 °F 62% 29.86 in 10.0 mi SW 15.0 mph 20.7 mph N/A   Clear
2:15 AM 83.3 °F 87.1 °F 69.6 °F 63% 29.89 in 10.0 mi WSW 13.8 mph 21.9 mph N/A   Scattered Clouds
2:35 AM 80.8 °F 80.6 °F 54.9 °F 41% 29.93 in 10.0 mi NW 23.0 mph 32.2 mph N/A   Mostly Cloudy
2:55 AM 77.0 °F - 58.1 °F 52% 29.92 in 10.0 mi NW 19.6 mph 31.1 mph N/A Rain Light Rain
3:15 AM 71.1 °F - 63.1 °F 76% 29.96 in 10.0 mi North 6.9 mph - 0.01 in Rain Light Rain
3:35 AM 70.7 °F - 63.5 °F 78% 29.91 in 10.0 mi NNW 4.6 mph - 0.01 in Rain Light Rain
3:55 AM 72.0 °F - 62.8 °F 73% 29.89 in 10.0 mi NNE 8.1 mph - 0.01 in   Scattered Clouds
4:15 AM 71.1 °F - 63.7 °F 77% 29.88 in 10.0 mi Calm Calm - N/A   Clear
4:35 AM 70.5 °F - 64.0 °F 80% 29.92 in 10.0 mi East 5.8 mph - N/A   Scattered Clouds
4:55 AM 70.0 °F - 64.6 °F 83% 29.92 in 10.0 mi East 6.9 mph - N/A   Scattered Clouds
5:15 AM 70.0 °F - 64.4 °F 82% 29.96 in 10.0 mi NE 6.9 mph - N/A   Mostly Cloudy
5:35 AM 70.3 °F - 64.6 °F 82% 29.97 in 10.0 mi NNW 8.1 mph - N/A   Overcast
5:55 AM 70.9 °F - 64.4 °F 80% 29.99 in 10.0 mi NNW 4.6 mph - N/A   Overcast
6:15 AM 71.6 °F - 63.9 °F 76% 29.98 in 10.0 mi NE 6.9 mph - N/A   Overcast
6:35 AM 71.6 °F - 63.3 °F 75% 29.96 in 10.0 mi ENE 6.9 mph - N/A   Overcast
6:55 AM 71.6 °F - 63.1 °F 75% 29.95 in 10.0 mi ENE 8.1 mph - N/A   Overcast
7:15 AM 71.8 °F - 63.5 °F 75% 29.95 in 10.0 mi ENE 5.8 mph - N/A   Mostly Cloudy
7:35 AM 72.0 °F - 64.4 °F 77% 29.98 in 10.0 mi NNW 11.5 mph - N/A   Overcast
7:55 AM 71.2 °F - 63.7 °F 77% 30.00 in 10.0 mi NNW 18.4 mph 21.9 mph N/A   Overcast
8:15 AM 70.7 °F - 64.0 °F 79% 30.00 in 10.0 mi NNW 17.3 mph 23.0 mph N/A   Overcast
8:35 AM 69.8 °F - 65.1 °F 85% 30.01 in 10.0 mi North 18.4 mph 23.0 mph N/A Rain Light Rain
8:55 AM 68.9 °F - 65.3 °F 88% 30.02 in 7.0 mi North 11.5 mph - N/A Rain Light Rain
9:15 AM 68.4 °F - 65.1 °F 89% 30.00 in 2.0 mi ENE 17.3 mph 21.9 mph 0.21 in Rain Heavy Rain
9:35 AM 68.2 °F - 64.4 °F 88% 29.88 in 10.0 mi East 28.8 mph 34.5 mph 0.26 in Rain Light Rain
9:55 AM 69.1 °F - 63.7 °F 83% 29.88 in 10.0 mi East 25.3 mph 33.4 mph 0.26 in   Clear
10:15 AM 70.7 °F - 64.4 °F 80% 29.87 in 10.0 mi SE 24.2 mph 33.4 mph N/A   Clear
10:35 AM 73.8 °F - 65.3 °F 75% 29.89 in 10.0 mi ESE 20.7 mph 28.8 mph N/A   Clear
10:55 AM 75.6 °F - 65.3 °F 70% 29.89 in 10.0 mi ESE 21.9 mph 29.9 mph N/A   Clear
11:15 AM 79.7 °F - 65.7 °F 62% 29.89 in 10.0 mi SE 24.2 mph 36.8 mph N/A   Clear
11:35 AM 81.5 °F 83.4 °F 65.3 °F 58% 29.87 in 10.0 mi SE 25.3 mph 34.5 mph N/A   Clear
11:55 AM 82.8 °F 84.3 °F 64.6 °F 54% 29.86 in 10.0 mi ESE 28.8 mph 39.1 mph N/A   Clear
12:15 PM 84.2 °F 85.6 °F 64.4 °F 51% 29.86 in 10.0 mi ESE 32.2 mph 39.1 mph N/A   Clear
12:35 PM 84.6 °F 86.1 °F 64.4 °F 51% 29.85 in 10.0 mi ESE 26.5 mph 38.0 mph N/A   Clear
12:55 PM 85.8 °F 88.5 °F 66.7 °F 53% 29.87 in 10.0 mi ESE 24.2 mph 33.4 mph N/A   Clear
1:15 PM 86.2 °F 90.0 °F 68.9 °F 56% 29.86 in 10.0 mi SE 18.4 mph 25.3 mph N/A   Clear
1:35 PM 85.8 °F 89.4 °F 68.5 °F 56% 29.85 in 10.0 mi SE 24.2 mph 27.6 mph N/A   Clear
1:55 PM 85.6 °F 90.1 °F 70.0 °F 59% 29.84 in 10.0 mi SE 18.4 mph - N/A   Clear
2:15 PM 86.0 °F 90.7 °F 70.0 °F 59% 29.84 in 10.0 mi SE 17.3 mph 25.3 mph N/A   Scattered Clouds
2:35 PM 86.5 °F 90.7 °F 68.9 °F 56% 29.83 in 10.0 mi SSE 18.4 mph 25.3 mph N/A   Scattered Clouds
2:55 PM 86.9 °F 91.7 °F 70.0 °F 57% 29.83 in 10.0 mi SSE 17.3 mph 24.2 mph N/A   Clear
3:15 PM 88.0 °F 92.9 °F 70.2 °F 55% 29.82 in 10.0 mi SE 18.4 mph 25.3 mph N/A   Clear
3:35 PM 88.9 °F 93.4 °F 69.4 °F 52% 29.82 in 10.0 mi SSE 21.9 mph 25.3 mph N/A   Scattered Clouds
3:55 PM 89.2 °F 93.2 °F 68.4 °F 50% 29.82 in 10.0 mi South 18.4 mph 25.3 mph N/A   Mostly Cloudy
4:15 PM 89.2 °F 93.2 °F 68.2 °F 50% 29.81 in 10.0 mi South 19.6 mph 25.3 mph N/A   Scattered Clouds
4:35 PM 89.6 °F 92.6 °F 66.7 °F 47% 29.81 in 10.0 mi South 17.3 mph 25.3 mph N/A   Scattered Clouds
4:55 PM 89.1 °F 92.5 °F 67.5 °F 49% 29.80 in 10.0 mi South 12.7 mph - N/A   Scattered Clouds
5:15 PM 90.5 °F 94.2 °F 67.8 °F 47% 29.80 in 10.0 mi South 17.3 mph 20.7 mph N/A   Mostly Cloudy
5:35 PM 90.1 °F 92.3 °F 65.8 °F 44% 29.80 in 10.0 mi South 18.4 mph 27.6 mph N/A   Mostly Cloudy
5:55 PM 90.9 °F 93.1 °F 65.5 °F 43% 29.79 in 10.0 mi South 19.6 mph 28.8 mph N/A   Scattered Clouds
6:15 PM 90.5 °F 91.1 °F 62.2 °F 39% 29.79 in 10.0 mi South 19.6 mph - N/A   Scattered Clouds
6:35 PM 90.3 °F 90.8 °F 62.6 °F 39% 29.78 in 10.0 mi South 19.6 mph 28.8 mph N/A   Scattered Clouds
6:55 PM 89.8 °F 90.4 °F 62.4 °F 40% 29.77 in 10.0 mi South 19.6 mph 27.6 mph N/A   Clear
7:15 PM 88.9 °F 89.4 °F 62.6 °F 41% 29.77 in 10.0 mi SSE 19.6 mph 27.6 mph N/A   Clear
7:35 PM 88.0 °F 89.0 °F 63.7 °F 44% 29.77 in 10.0 mi SSE 18.4 mph 24.2 mph N/A   Clear
7:55 PM 87.6 °F 88.8 °F 64.0 °F 45% 29.78 in 10.0 mi SSE 17.3 mph 25.3 mph N/A   Clear
8:15 PM 85.6 °F 87.4 °F 64.9 °F 50% 29.78 in 10.0 mi SSE 13.8 mph - N/A   Clear
8:35 PM 84.9 °F 86.8 °F 65.3 °F 52% 29.78 in 10.0 mi SSE 16.1 mph 23.0 mph N/A   Clear
8:55 PM 83.8 °F 86.0 °F 65.8 °F 55% 29.78 in 10.0 mi SSE 12.7 mph - N/A   Clear
9:15 PM 82.9 °F 85.2 °F 66.2 °F 57% 29.77 in 10.0 mi SSE 13.8 mph - N/A   Clear
9:35 PM 82.4 °F 84.6 °F 66.4 °F 58% 29.79 in 10.0 mi SSE 15.0 mph 18.4 mph N/A   Clear
9:55 PM 82.4 °F 85.0 °F 67.1 °F 60% 29.80 in 10.0 mi SSE 13.8 mph 19.6 mph N/A   Clear
10:15 PM 81.7 °F 84.2 °F 67.1 °F 61% 29.81 in 10.0 mi SSE 15.0 mph 20.7 mph N/A   Clear
10:35 PM 81.5 °F 84.1 °F 67.5 °F 62% 29.82 in 10.0 mi SSE 12.7 mph 20.7 mph N/A   Clear
10:55 PM 81.3 °F 84.0 °F 67.6 °F 63% 29.81 in 10.0 mi SSE 15.0 mph - N/A   Clear
11:15 PM 80.6 °F 83.2 °F 68.0 °F 65% 29.81 in 10.0 mi SSE 12.7 mph - N/A   Clear
11:35 PM 79.9 °F - 67.6 °F 66% 29.80 in 10.0 mi SSE 17.3 mph - N/A   Clear
11:55 PM 79.7 °F - 67.8 °F 67% 29.79 in 10.0 mi SSE 17.3 mph 23.0 mph N/A   Clear